Location: Newark
(30.1000°N, 109.4667°E)
Time: 01:30:42
(UTC+00:00)

A-11 Canister half - Pass Details

Date: 18 February 2020
Orbit: 1516 x 1683 km, 47.2° (Epoch: 06 April)

Event Time Altitude Azimuth Distance (km) Brightness Sun altitude
Rises 11:24:41 0° 275° (W) 4,878 13.5 -12.0°
Reaches altitude 10° 11:28:25 10° 286° (WNW) 3,869 12.3 -12.8°
Maximum altitude 11:36:53 31° 346° (NNW) 2,511 10.2 -14.6°
Drops below altitude 10° 11:45:09 10° 46° (NE) 3,756 10.6 -16.4°
Enters shadow 11:45:13 10° 46° (NE) 3,774 10.6 -16.4°
